Weather in Baga

India     15°33′24″N   73°45′19″E
temp.,
°C
wind,
m/s
gust,
m/s
humid.,
%
clouds,
%
prec.,
mm/h
press.,
hPa
HPBL,
m
28 february, sun
sun2823:30+27nnw57730 0.0 1009329
02:30+25nne33720 0.0 1008213
05:30+25ne22720 0.0 1007195
08:30+26e12570 0.0 1010130
11:30+30sw44480 0.0 1010306
14:30+30wsw56620 0.0 1006287
17:30+29w34640 0.0 1006318
20:30+27ne22660 0.0 100967
1 march, mon
mon123:30+27ene22591 0.0 101162
02:30+26se22715 0.0 1009130
05:30+25ese228013 0.0 1009132
08:30+26ese67842 0.0 1013400
11:30+28s66778 0.0 1013669
14:30+29ssw67760 0.0 1009624
17:30+28sw44740 0.0 1009638
20:30+27wnw12780 0.0 1012429
2 march, tue
tue223:30+26e22780 0.0 1013140
02:30+25ese33850 0.0 1011129
05:30+24ese33890 0.0 1010167
08:30+25e23800 0.0 1013194
11:30+28ssw44740 0.0 1013411
14:30+29sw67714 0.0 1009388
17:30+28w44702 0.0 1008470
20:30+27nnw45760 0.0 1011319
3 march, wed
wed323:30+26ne22780 0.0 1011142
02:30+25ene11820 0.0 100989
05:30+24ese22850 0.0 1008124
08:30+25sse12800 0.0 1011230
11:30+28ssw33680 0.0 1010482
14:30+29wsw66683 0.0 1007331
17:30+29w34651 0.0 1006318
20:30+27n44750 0.0 1009225
4 march, thu
thu423:30+26ne22697 0.0 1009120
02:30+25ene22759 0.0 1007103
05:30+25sse347447 0.0 1007180
08:30+27sse677887 0.0 1011426
11:30+28s787776 0.0 1012494
14:30+29sw78761 0.0 1008500
17:30+28wsw45770 0.0 1007585
20:30+27wnw11780 0.0 1010476